User: anonymous   Login
Location: Unspecified
(0.0000°N, 0.0000°E)
Time: 19:06:54
(UTC+00:00)
Language:

STARLINK-11240 [DTC] - Orbit

View from above orbital plane
View from above orbital plane
View from above satellite
View from above satellite

Ground track
Ground track

The orbit is defined by the following mean orbital elements,

1 60929U          26145.47973512 +.00000000 +00000-0 +61714-5 0 00009
2 60929  53.1592 322.6650 0000843  99.9887 260.1226 15.69711466    07
Epoch (UTC): 25 May 2026 11:30:49
Eccentricity: 0.0000843
inclination: 53.1592°
perigee height: 359 km
apogee height: 360 km
right ascension of ascending node: 322.6650°
argument of perigee: 99.9887°
revolutions per day: 15.69711466
mean anomaly at epoch: 260.1226°

The dashed part of the orbit path shows where the satellite is in the earth's shadow,  

DLR